Weather History for Aberdeen, SD

Change the Weather History Date:

Monday, February 25, 2013

  Actual Average Record
Temperature  
Mean Temperature 14 °F 21 °F  
Max Temperature 29 °F 31 °F 70 °F (1958)
Min Temperature -1 °F 12 °F -29 °F (1919)
Degree Days  
Heating Degree Days 51 44  
Month to date heating degree days 1253 1201  
Since 1 July heating degree days 6266 6335  
Cooling Degree Days 0 0  
Month to date cooling degree days 0 0  
Year to date cooling degree days 0 0  
Moisture  
Dew Point 6 °F    
Average Humidity 83    
Maximum Humidity 92    
Minimum Humidity 74    
Precipitation  
Precipitation 0.00 in 0.02 in 0.93 in (1904)
Month to date precipitation 1.06 0.47  
Year to date precipitation 1.84 0.94  
Snow  
Snow 0.00 in - - ()
Month to date snowfall 15.6  
Since 1 July snowfall 39.1  
Snow Depth 8.00 in    
Sea Level Pressure  
Sea Level Pressure 30.08 in    
Wind  
Wind Speed 5 mph (SSW)    
Max Wind Speed 12 mph    
Max Gust Speed 13 mph    
Visibility 5 miles    
Events Fog    
T = Trace of Precipitation, MM = Missing Value Source: NWS Daily Summary

Daily Weather History Graph

Daily Weather History Graph

Search for Another Location

Airport:

Trip Planner

Search our weather history database for the weather conditions in past years. The results will help you decide how hot, cold, wet, or windy it might be!

Date:

Astronomy

Feb. 25, 2013 Rise Set
Actual Time 7:18 AM CST 6:15 PM CST
Civil Twilight 6:48 AM CST 6:45 PM CST
Nautical Twilight 6:14 AM CST 7:19 PM CST
Astronomical Twilight 5:40 AM CST 7:54 PM CST
Moon 6:33 PM CST (2/25) 6:47 AM CST (2/25)
Length of Visible Light 11h 56m
Length of Day
10h 57m
Full, 100% of the Moon is Illuminated
Feb 25
Full
Feb 25
Full
Mar 4
Last Quarter
Mar 11
New
Mar 19
First Quarter

Hourly Weather History & Observations

Time (CST) Temp. Windchill Dew Point Humidity Pressure Visibility Wind Dir Wind Speed Gust Speed Precip Events Conditions
12:53 AM 12.0 °F 5.9 °F 8.1 °F 84% 30.15 in 7.0 mi WSW 3.5 mph - N/A   Clear
1:53 AM 8.1 °F -0.5 °F 3.9 °F 83% 30.15 in - WNW 4.6 mph - N/A   Clear
2:53 AM 12.0 °F 2.7 °F 10.0 °F 92% 30.14 in - WNW 5.8 mph - N/A   Clear
3:53 AM 12.9 °F 1.6 °F 9.0 °F 84% 30.13 in - WNW 8.1 mph - N/A   Clear
4:53 AM 9.0 °F 0.6 °F 6.1 °F 88% 30.13 in - NW 4.6 mph - N/A   Clear
5:53 AM 3.2 °F -4.2 °F -0.4 °F 85% 30.07 in - SW 3.5 mph - N/A   Clear
6:53 AM -0.0 °F -11.6 °F -4.0 °F 83% 30.16 in 6.0 mi SW 5.8 mph - N/A   Clear
7:53 AM -0.0 °F -9.9 °F -4.0 °F 83% 30.17 in 7.0 mi WSW 4.6 mph - N/A   Clear
8:53 AM 3.0 °F -6.4 °F -0.0 °F 87% 30.17 in 7.0 mi SSE 4.6 mph - N/A   Clear
1:53 PM 25.0 °F 16.3 °F 18.0 °F 75% 30.09 in 10.0 mi South 8.1 mph - N/A   Clear
2:53 PM 27.0 °F 20.5 °F 19.9 °F 75% 30.09 in 10.0 mi South 5.8 mph - N/A   Clear
3:53 PM 28.9 °F 22.8 °F 21.0 °F 72% 30.06 in 10.0 mi South 5.8 mph - N/A   Clear
4:53 PM 25.0 °F 18.1 °F 19.0 °F 78% 30.07 in 9.0 mi South 5.8 mph - N/A   Clear
5:53 PM 19.0 °F 10.0 °F 14.0 °F 81% 30.09 in 8.0 mi South 6.9 mph - N/A   Clear
6:53 PM 14.0 °F 8.2 °F 10.0 °F 84% 30.10 in 8.0 mi South 3.5 mph - N/A   Clear
7:53 PM 9.0 °F -3.2 °F 6.1 °F 88% 30.10 in 6.0 mi SSE 8.1 mph - N/A   Clear
8:53 PM 9.0 °F 0.6 °F 6.1 °F 88% 30.09 in 7.0 mi South 4.6 mph - N/A   Clear
9:53 PM 9.0 °F - 5.0 °F 84% 30.07 in 4.0 mi Calm Calm - N/A   Clear
10:28 PM 8.6 °F - 3.2 °F 79% 29.98 in 2.5 mi Calm Calm - N/A   Clear
10:41 PM 6.8 °F - 3.2 °F 85% 29.98 in 1.5 mi Calm Calm - N/A   Clear
10:53 PM 8.1 °F - 3.9 °F 83% 30.06 in 0.8 mi Calm Calm - N/A   Clear
11:23 PM 3.2 °F - -0.4 °F 85% 29.98 in 0.2 mi Calm Calm - N/A Fog Light Freezing Fog
11:33 PM 3.2 °F -4.2 °F 1.4 °F 92% 29.97 in 0.2 mi SSE 3.5 mph - N/A Fog Light Freezing Fog
11:40 PM 1.4 °F -6.2 °F -0.4 °F 92% 29.97 in 0.2 mi SE 3.5 mph - N/A Fog Light Freezing Fog
11:49 PM 1.4 °F -6.2 °F -0.4 °F 92% 29.98 in 1.0 mi SSE 3.5 mph - N/A   Mist
11:53 PM 1.9 °F -5.6 °F -0.9 °F 88% 30.07 in 0.5 mi SE 3.5 mph - N/A Fog Light Freezing Fog